sat.trackr.live / text

‹ back to catalog

STARLINK-36878

NORAD 67899 · 2026-035W

PAYLOAD ACTIVE UNKNOWN

§ Identity

Operator
Country
US
Launch date
2026-02-21
Launch site
AFWTR
Launch vehicle
Mass (kg)
RCS (m²)

Purposes: comms

External: N2YO · Heavens-Above · Gunter

§ Orbital elements

Epoch: 2026-09-19T13:32:55.423968Z

Period
93.91 min
Inclination
97.2843°
Eccentricity
0.0001668
Mean motion
15.33448400 rev/d
Perigee alt
464.4 km
Apogee alt
466.7 km
Semi-major
6,843.7 km
B*
6.9658e-4
RAAN
194.4900°
Arg perigee
89.6821°
Mean anomaly
270.4613°
Rev number
3,370

§ Raw data

STARLINK-368781 67899U 26035W   26262.56453037  .00022483  00000+0  69658-3 0  99912 67899  97.2843 194.4900 0001668  89.6821 270.4613 15.33448400 33704

JSON: /api/v1/satellites/67899 · /tle

For live sub-satellite position, see the globe view (requires WebGL).

§ Visibility from observer

Set your observer location to see the next 7 days of passes ≥ 10°. The values pass through the URL so the page stays shareable.

No JS? Fill the form by hand. The geolocation button needs JavaScript.